Location: Beddau
(51.5575°N, 3.3561°W)
Time: 03:01:44
(UTC+00:00)

Cosmos 1503 Rocket - Pass Details

Date: 03 March 2021
Orbit: 753 x 790 km, 74.0° (Epoch: 13 April)

Event Time Altitude Azimuth Distance (km) Brightness Sun altitude
Rises 18:26:58 0° 337° (NNW) 3,238 7.5 -5.4°
Reaches altitude 10° 18:29:25 10° 342° (NNW) 2,303 6.7 -5.7°
Maximum altitude 18:34:31 52° 59° (ENE) 938 4.2 -6.5°
Drops below altitude 10° 18:39:33 10° 136° (SE) 2,276 6.1 -7.3°
Sets 18:41:57 0° 141° (SE) 3,196 6.8 -7.7°
